Home   Weather   Bălți   Past weeks

Flag for Moldova Past Weather in Bălți, Moldova — Yesterday and Last 2 Weeks

43 °F

Broken clouds.

Feels Like: 36 °F
Forecast: 40 / 45 °F
Wind: 13 mph from Southeast

Location: Iasi Airport

Current Time: Oct 26, 2016 at 8:55:55 AM

Latest Report: Oct 26, 2016 at 8:00 AM

Visibility: N/A

Pressure: 30.21 "Hg

Humidity: 76%

Dew Point: 36 °F

Location of BălțiLocation

Past Weather in Bălți — Graph


Bălți Temperature Yesterday

Maximum temperature yesterday: 50 °F (at 3:30 PM)
Minimum temperature yesterday: 43 °F (at 4:00 AM)
Average temperature yesterday: 46 °F

High & Low Weather Summary for the Past Weeks

High50 °F (Oct 12, 5:30 AM)94% (Oct 23, 11:30 AM)30.66 "Hg (Oct 23, 11:30 AM)
Low28 °F (Oct 17, 8:00 AM)40% (Oct 17, 3:30 PM)29.71 "Hg (Oct 13, 4:00 AM)
Average44 °F77%30.26 "Hg
* Reported Oct 11 7:00 AM — Oct 26 7:30 AM, Bălți, Weather by CustomWeather, © 2016

Note: Actual official high and low records may vary slightly from our data, if they occured in-between our weather recording intervals... More about our weather records


Bălți Weather History for the Previous 24 Hours

Scroll right to see more
Time TempWeatherWind HumidityBarometerVisibility
7:30 AM
Wed, Oct 26
43 °FPassing clouds.14 mph76%30.21 "HgN/A
7:00 AM43 °FPassing clouds.13 mph76%30.21 "HgN/A
6:30 AM43 °FPassing clouds.13 mph76%30.21 "HgN/A
6:00 AM45 °FPassing clouds.14 mph71%30.24 "HgN/A
5:30 AM45 °FPassing clouds.13 mph76%30.24 "HgN/A
5:00 AM45 °FMostly cloudy.13 mph76%30.27 "HgN/A
4:00 AM45 °FMostly cloudy.14 mph71%30.27 "HgN/A
3:00 AM45 °FPassing clouds.14 mph71%30.30 "HgN/A
2:00 AM45 °FMostly cloudy.18 mph71%30.30 "HgN/A
1:00 AM45 °FMostly cloudy.16 mph71%30.33 "HgN/A
12:00 AM45 °FMostly cloudy.15 mph71%30.36 "HgN/A
11:00 PM
Tue, Oct 25
45 °FMostly cloudy.16 mph71%30.36 "HgN/A
10:00 PM45 °FMostly cloudy.16 mph71%30.39 "HgN/A
9:00 PM45 °FMostly cloudy.15 mph71%30.39 "HgN/A
8:30 PM45 °FMostly cloudy.16 mph71%30.39 "HgN/A
8:00 PM45 °FMostly cloudy.20 mph71%30.39 "HgN/A
7:30 PM45 °FMostly cloudy.20 mph71%30.39 "HgN/A
7:00 PM46 °FMostly cloudy.17 mph66%30.39 "HgN/A
6:30 PM46 °FOvercast.18 mph66%30.39 "HgN/A
6:00 PM48 °FOvercast.16 mph66%30.39 "HgN/A
5:30 PM48 °FOvercast.20 mph66%30.39 "HgN/A
5:00 PM50 °FOvercast.17 mph62%30.39 "HgN/A
4:30 PM50 °FPartly sunny.20 mph62%30.42 "HgN/A
4:00 PM50 °FPartly sunny.17 mph67%30.42 "HgN/A
3:30 PM50 °FPartly sunny.21 mph62%30.42 "HgN/A
3:00 PM48 °FPartly sunny.21 mph66%30.42 "HgN/A
2:30 PM48 °FBroken clouds.17 mph66%30.42 "HgN/A
2:00 PM48 °FPartly sunny.18 mph66%30.42 "HgN/A
1:30 PM48 °FPartly sunny.17 mph66%30.45 "HgN/A
1:00 PM48 °FPartly sunny.16 mph71%30.48 "HgN/A
12:30 PM48 °FPartly sunny.18 mph71%30.45 "HgN/A
12:00 PM48 °FPartly sunny.17 mph71%30.48 "HgN/A
11:30 AM46 °FBroken clouds.16 mph76%30.48 "HgN/A
11:00 AM46 °FBroken clouds.16 mph71%30.48 "HgN/A
10:30 AM46 °FBroken clouds.17 mph71%30.48 "HgN/A
10:00 AM46 °FBroken clouds.20 mph71%30.45 "HgN/A
9:30 AM46 °FPartly sunny.15 mph71%30.45 "HgN/A
9:00 AM45 °FOvercast.14 mph76%30.45 "HgN/A
8:30 AM45 °FOvercast.14 mph76%30.45 "HgN/A
8:00 AM45 °FOvercast.14 mph76%30.45 "HgN/A
Weather by CustomWeather, © 2016

See weather overviewHow to use our weather pages